Theta_e
293 288 286 285 289 290 290 289 291 291 290 287 285 283 285 285 286 287 289 290 287 286 287 289 289 289 290 291 293 295 295 294 294 294 294 295 295 295 296 296 297 297 298 301 301 298 297 297 296 296 296 296 296 296 295 295 294 294 294 293 293 294 294 294 293 292 291 290 289 289 290 290 290 290 289 288 289 289 289 289 288 288 288 288 287 287
292 286 286 290 292 292 291 291 290 289 287 287 286 283 285 283 285 290 290 291 287 286 285 286 288 289 290 292 293 294 293 293 294 295 295 295 295 296 296 296 297 298 299 299 299 299 295 295 294 294 295 295 294 295 295 295 295 294 294 293 294 294 293 294 293 293 292 292 292 291 290 291 291 290 289 288 288 289 289 288 288 287 288 287 287 287
285 285 289 292 294 291 288 288 287 287 287 285 286 285 283 285 287 290 290 292 289 285 287 288 287 289 290 291 293 293 294 295 296 296 297 296 296 297 297 297 297 298 297 298 298 299 298 294 293 293 294 295 296 296 295 295 295 294 293 293 293 293 293 293 294 293 292 292 292 292 291 291 290 290 290 289 289 288 288 288 288 287 287 287 286 286
283 285 290 293 291 289 288 287 286 285 284 283 284 281 283 287 284 284 285 286 286 288 283 281 285 288 289 291 291 293 294 295 296 296 296 296 295 296 297 298 298 297 298 297 298 299 297 293 293 292 293 295 295 295 294 294 294 294 293 293 293 293 293 293 293 294 293 293 291 289 288 289 289 287 288 287 286 286 286 287 287 287 287 286 286 286
289 289 290 290 289 289 289 288 286 284 287 285 286 284 285 285 287 286 285 284 285 286 285 286 286 288 289 289 290 292 294 293 294 295 295 296 296 297 298 297 297 297 298 298 298 298 296 291 292 293 294 293 294 295 295 294 294 294 293 293 293 293 293 293 293 293 292 291 288 287 287 287 285 286 286 285 284 286 287 287 286 287 286 286 286 285
288 290 288 288 288 287 286 286 286 287 285 285 284 287 288 289 287 286 286 285 281 282 283 284 282 284 284 288 289 291 289 290 292 292 293 295 296 296 295 295 296 297 298 298 298 298 297 294 293 292 292 292 293 294 295 295 295 294 293 293 292 292 292 292 292 293 292 291 289 287 287 286 286 285 285 286 287 286 286 287 287 286 286 286 286 285
288 289 290 289 287 286 285 286 287 287 287 285 283 287 289 288 286 285 285 283 279 277 284 284 281 282 282 283 287 286 287 290 290 290 292 294 295 295 295 296 296 296 297 297 297 297 297 296 293 292 292 293 293 295 295 294 293 293 293 292 292 292 292 292 292 292 291 290 289 289 289 289 288 288 287 289 289 288 287 286 286 286 285 285 285 285
286 286 286 288 286 285 284 283 288 288 286 284 283 284 285 285 284 285 284 284 283 281 283 283 283 279 283 284 287 289 290 289 290 292 292 294 295 295 295 295 296 297 297 296 295 296 296 296 296 295 293 293 294 294 292 293 292 292 292 291 292 292 292 292 292 291 291 290 289 289 289 289 289 289 289 288 288 287 286 286 285 285 285 285 285 285
287 285 284 284 285 283 285 289 286 289 287 283 285 284 285 286 285 283 283 282 280 279 281 281 282 281 281 285 288 288 286 288 289 291 293 295 296 296 295 295 296 297 297 295 295 296 297 296 295 295 294 294 293 293 293 293 292 292 291 291 291 291 291 291 291 291 291 291 290 289 289 289 290 289 289 287 287 286 286 285 284 285 285 285 285 285
286 288 285 288 286 285 287 287 287 289 286 286 284 284 282 281 282 283 281 283 279 277 280 280 283 278 283 284 284 284 285 286 288 292 293 294 295 295 296 296 296 296 296 296 296 296 296 295 293 293 293 291 292 292 292 291 291 291 290 290 290 290 290 290 290 291 290 290 290 289 289 289 289 288 285 285 285 285 284 285 284 285 284 284 284 284
287 290 288 287 286 288 286 285 284 288 288 285 285 287 281 281 279 278 278 278 281 277 281 282 283 282 279 283 282 284 286 288 290 288 291 293 293 294 295 296 297 297 298 297 295 292 293 291 290 290 291 291 289 290 290 290 290 290 290 290 289 290 290 290 290 290 290 290 290 289 289 289 289 288 286 284 284 284 283 284 284 284 284 284 284 284
287 287 287 287 288 286 285 285 284 284 284 286 287 281 283 284 278 278 270 277 275 277 280 283 284 284 279 280 282 284 284 283 289 289 290 291 291 293 295 296 296 295 295 296 295 293 290 290 289 288 289 288 288 288 289 289 290 290 290 289 289 289 289 289 290 290 290 290 290 290 289 289 289 288 287 286 285 285 284 285 284 284 284 283 284 283
283 286 286 288 289 291 286 287 283 282 286 285 282 284 280 275 275 269 272 271 272 277 278 281 282 279 281 286 282 285 287 287 286 289 291 291 292 292 293 294 295 294 293 294 294 291 291 290 290 288 288 287 287 289 289 289 289 289 289 289 289 289 289 289 289 289 290 289 290 290 289 289 289 288 288 287 287 285 285 285 284 283 283 283 283 283
283 282 284 287 289 289 289 286 281 283 284 284 284 280 277 272 270 270 267 265 269 276 277 279 281 280 285 281 288 292 294 294 293 290 290 292 293 293 292 293 293 294 295 295 293 291 291 293 291 289 289 289 288 288 289 288 289 289 289 289 289 289 289 289 289 289 289 289 290 290 289 289 289 288 288 287 287 286 286 286 285 284 284 284 284 283
277 282 282 286 284 287 291 291 290 286 283 286 284 286 282 279 270 268 270 276 278 279 276 276 276 275 274 281 283 292 293 289 288 290 289 289 289 290 292 292 292 293 295 296 293 292 291 292 290 290 290 289 288 288 288 288 289 289 289 289 289 289 288 289 289 289 289 289 289 289 289 289 289 289 288 288 288 287 286 285 285 285 285 284 284 284
282 283 283 288 287 289 289 290 285 282 283 283 283 281 279 281 279 281 280 277 280 275 273 273 278 276 282 285 286 285 287 289 290 288 287 289 290 292 292 292 293 294 295 296 295 292 290 291 290 290 290 289 288 287 288 288 288 289 289 289 289 289 289 289 288 289 289 289 289 289 289 289 289 289 289 288 288 287 287 286 285 285 285 285 285 284
284 279 285 287 286 287 287 285 290 289 280 281 284 281 285 284 285 282 282 280 275 273 277 282 278 282 283 288 289 289 289 289 289 288 289 290 292 290 290 292 292 294 294 295 295 292 292 291 290 290 289 288 288 288 288 289 289 289 289 289 289 289 289 289 289 289 289 289 288 289 289 289 289 288 288 288 288 287 286 286 285 285 285 284 284 284
285 286 288 285 286 288 284 285 287 284 286 283 279 283 285 284 283 281 275 275 279 277 278 283 281 283 281 280 282 284 283 284 283 286 288 289 288 288 291 292 293 293 293 292 291 290 291 291 292 291 290 290 289 289 288 289 289 289 290 289 289 289 288 289 289 289 289 288 288 288 288 289 289 289 289 288 288 287 286 285 285 285 284 284 284 284
289 282 287 286 287 288 285 288 287 286 287 286 285 287 285 279 278 280 275 274 276 275 278 281 283 283 285 285 289 286 285 286 288 286 284 285 285 288 291 292 291 291 291 292 292 292 291 292 293 291 290 289 288 288 287 288 288 288 288 289 289 289 290 290 290 289 289 289 289 289 289 289 289 289 289 289 288 286 286 285 285 285 285 284 284 283
288 282 284 286 287 287 284 285 280 283 287 286 287 286 286 284 284 281 283 279 281 277 279 278 284 281 288 288 289 289 289 290 288 285 286 285 290 295 295 294 293 292 292 292 293 293 292 291 291 291 291 290 290 289 288 288 287 287 288 288 288 289 289 288 289 289 289 289 289 289 289 289 289 289 289 289 288 286 286 285 285 284 284 284 284 283
285 287 279 288 285 288 283 285 284 286 282 284 284 282 285 284 285 284 282 280 280 279 279 278 277 283 289 294 292 292 292 286 287 288 287 290 291 291 289 289 290 290 291 292 293 293 291 291 290 290 289 289 286 287 288 288 288 288 287 287 288 288 288 288 289 289 289 289 289 289 288 288 288 288 289 288 287 287 286 286 285 285 284 283 283 283
287 284 284 285 285 286 288 290 288 288 290 288 287 285 287 284 282 280 278 285 281 281 278 279 277 285 291 295 295 294 295 286 286 286 288 288 287 288 291 291 289 291 294 295 294 289 290 291 291 289 287 286 287 287 287 288 286 287 287 288 288 287 287 287 288 288 289 289 289 288 288 288 288 288 287 287 287 286 286 285 285 285 284 283 283 283
290 285 286 283 286 287 290 293 293 290 290 289 289 288 290 289 287 283 278 281 285 283 285 283 281 282 294 295 296 296 296 293 287 285 287 289 290 289 289 289 290 291 292 294 293 292 289 288 288 289 289 289 288 288 287 286 287 287 287 286 287 287 288 288 288 288 288 288 288 288 288 288 287 287 286 286 286 286 286 285 285 284 283 283 283 283
292 284 282 285 288 290 291 292 291 286 286 285 286 286 285 285 287 286 285 286 283 283 283 282 279 283 294 296 296 296 296 295 292 287 289 289 288 288 289 291 292 293 293 289 287 286 288 287 288 290 291 290 289 289 289 288 287 288 288 287 287 287 288 288 288 288 287 287 287 287 287 287 287 286 286 286 286 286 286 285 285 284 283 283 283 282
287 284 287 282 282 284 285 285 286 288 284 284 286 288 288 288 288 288 286 283 282 283 284 281 276 282 290 293 294 294 294 294 294 288 285 288 288 289 290 290 289 287 287 287 288 289 290 292 293 293 292 292 290 289 289 289 289 288 288 287 287 288 288 288 288 287 287 287 287 286 286 286 286 286 286 286 286 286 286 285 284 283 283 283 282 282
288 285 284 280 277 275 275 276 277 281 284 286 284 287 288 286 285 283 281 283 279 283 285 281 281 287 292 291 292 293 293 294 294 295 286 286 288 289 288 288 289 290 293 293 292 291 292 293 291 290 291 292 291 290 290 290 290 289 288 288 288 288 288 288 287 286 286 286 286 286 286 286 286 286 286 286 286 286 286 285 284 283 283 283 282 282
282 285 288 286 283 281 283 285 284 283 281 282 281 286 287 287 287 286 285 282 280 283 282 284 285 285 288 290 291 292 294 293 294 295 295 293 292 288 287 289 290 290 289 288 288 289 289 289 290 291 291 291 290 290 290 290 290 290 290 289 288 288 288 287 286 286 286 286 286 286 286 286 286 286 286 286 286 286 285 285 284 283 283 283 282 281
278 282 286 287 286 287 288 287 289 289 286 286 285 284 285 285 285 284 282 280 286 282 278 286 287 285 286 290 291 292 293 294 294 295 296 296 295 295 292 289 289 288 287 287 287 287 287 287 287 288 288 289 290 290 290 290 290 290 290 290 289 288 287 288 287 287 287 287 286 286 286 286 286 286 286 286 285 285 285 284 283 283 283 282 281 281
281 281 285 285 285 287 288 288 289 289 288 287 287 287 286 287 286 282 283 285 285 282 280 285 287 285 287 289 291 293 294 294 294 295 295 296 292 288 287 286 286 286 285 285 285 285 285 285 286 286 287 287 288 289 289 290 290 290 290 289 289 288 288 287 286 286 286 286 286 286 287 287 286 286 285 284 284 284 283 283 283 282 282 281 281 281
285 282 286 286 284 285 286 287 288 286 286 287 286 286 287 286 286 286 286 287 286 285 286 286 286 286 289 290 291 292 294 294 294 294 292 286 283 285 285 284 284 284 284 284 284 285 285 285 285 286 286 286 287 288 288 289 289 289 289 290 290 290 290 288 287 287 286 286 286 286 286 286 285 284 284 283 283 283 283 283 282 281 281 281 281 280
286 281 287 284 282 282 286 287 286 285 284 283 285 286 287 286 286 286 286 286 286 285 287 286 286 285 291 293 291 288 285 287 286 285 284 284 283 282 282 282 282 283 283 284 284 284 284 284 285 285 286 286 286 287 288 288 289 289 288 288 287 288 288 287 287 286 285 286 286 286 285 284 284 283 283 283 283 283 283 282 282 281 280 280 280 279
285 280 285 283 279 279 284 285 285 286 285 283 283 284 284 283 282 284 283 285 284 283 285 285 283 284 283 279 283 282 282 282 283 281 281 281 281 281 280 281 280 281 282 282 283 283 283 284 284 285 285 285 286 286 287 287 288 288 288 288 289 289 287 285 284 285 285 285 285 285 284 284 284 283 283 283 283 282 282 281 280 279 279 279 278 278
282 281 280 280 277 277 282 284 283 283 282 279 281 284 285 285 286 286 287 287 287 287 283 282 282 276 277 281 278 279 279 279 281 281 279 280 280 280 280 280 280 280 281 281 282 282 283 283 284 285 285 285 286 286 286 287 287 286 287 287 288 288 288 286 285 285 285 285 285 285 284 283 283 283 283 283 283 282 281 280 279 279 278 278 278 278
283 281 279 282 276 276 280 280 282 278 272 275 286 288 287 285 285 282 283 282 280 281 279 277 277 279 279 278 276 277 278 278 280 283 281 280 280 280 280 280 280 281 281 281 282 281 282 283 284 285 285 285 286 286 287 287 286 286 286 287 287 286 286 286 286 285 285 285 285 285 284 283 283 283 282 281 281 280 280 279 279 279 278 278 277 277
280 280 278 280 276 275 279 279 275 270 272 284 285 281 281 281 279 277 279 275 278 278 279 278 277 277 278 278 279 278 279 281 281 284 281 282 281 280 280 280 280 281 280 281 281 282 282 283 283 284 284 285 285 286 286 287 286 285 285 286 286 284 284 284 284 284 284 284 284 283 282 283 282 282 281 279 279 278 278 278 278 278 278 277 277 276
280 279 278 278 278 277 275 274 268 269 282 279 284 280 281 280 278 278 278 276 276 278 278 277 278 278 279 279 279 281 280 280 282 283 282 283 283 282 282 281 281 281 281 281 280 281 282 283 283 283 283 285 285 285 286 286 285 285 285 286 285 283 282 282 282 282 282 282 282 282 282 280 280 280 279 279 278 278 278 277 278 277 277 277 277 277
282 281 279 274 279 271 272 272 271 278 278 279 278 277 277 273 274 274 271 276 275 277 278 277 278 278 278 279 279 279 281 280 280 283 282 282 283 284 283 282 283 283 283 283 283 283 284 284 284 284 285 284 285 285 285 285 285 284 284 285 284 282 282 282 281 281 280 281 280 281 280 281 280 279 278 278 278 278 277 277 277 277 277 276 276 276
283 279 281 276 275 279 272 270 270 269 266 271 273 276 281 281 281 280 278 274 277 277 280 277 278 278 278 279 279 279 280 277 274 278 281 282 284 283 284 284 284 284 284 284 284 284 284 284 284 285 285 284 285 285 286 286 284 284 284 284 283 282 282 283 282 281 279 279 280 280 278 278 277 278 277 276 277 277 277 277 276 276 276 276 275 275
277 282 282 277 275 276 274 271 270 270 271 272 272 277 279 281 281 280 276 271 278 276 279 278 277 277 278 278 277 279 276 272 273 276 280 282 283 283 283 283 283 284 283 283 283 283 283 284 284 284 284 284 283 285 286 286 285 285 284 284 283 282 283 283 283 281 279 279 278 277 275 275 276 277 277 277 277 277 277 277 276 276 275 275 275 275
269 270 274 274 273 273 271 269 267 271 269 273 271 275 278 279 279 280 269 270 275 278 280 279 277 278 278 279 279 277 275 271 273 277 281 282 283 283 282 282 282 283 283 283 283 283 283 284 283 283 283 283 283 285 285 285 285 284 284 284 284 283 284 284 282 280 278 278 277 275 274 275 276 276 276 277 276 276 277 277 275 274 274 274 274 273
269 270 271 269 270 271 272 269 271 272 277 275 275 277 278 278 277 269 266 271 275 279 280 278 278 279 279 278 279 275 278 279 279 281 282 283 282 282 283 283 283 283 282 282 282 284 283 283 282 282 282 282 283 284 285 285 284 283 284 284 284 284 285 285 282 280 278 277 276 276 276 276 277 277 276 276 276 276 275 275 274 273 273 272 272 272
266 268 267 269 267 268 270 269 269 273 277 277 278 279 279 277 266 266 272 276 275 276 279 279 278 279 279 278 278 279 280 281 282 282 282 282 282 282 282 282 282 282 282 282 283 282 282 282 281 281 281 282 283 284 284 284 283 283 283 283 283 284 285 285 283 281 279 277 276 276 276 277 277 277 276 275 275 274 274 273 273 272 272 271 271 271
268 269 264 267 267 267 266 266 265 262 272 274 276 276 279 270 271 277 277 278 278 278 279 279 280 279 279 278 278 278 279 279 280 280 281 281 281 281 280 280 280 280 280 280 280 281 281 280 280 280 280 281 282 283 283 282 282 282 282 282 283 284 285 285 284 282 280 278 277 276 276 275 276 276 275 274 275 274 273 272 272 272 272 271 270 270
272 267 265 265 269 265 264 263 263 267 272 275 274 270 274 276 278 277 276 276 278 279 279 279 279 279 279 279 278 278 277 277 278 278 278 279 279 279 279 279 280 279 279 279 280 280 281 279 279 279 279 280 281 281 281 281 281 281 281 281 283 284 284 285 285 282 280 279 278 277 275 275 275 275 274 274 274 274 273 271 271 271 271 271 270 270
272 270 272 267 271 269 265 271 274 276 276 278 278 277 278 279 277 277 278 278 278 278 280 279 278 279 279 279 278 277 277 277 277 277 277 277 277 277 278 278 278 278 278 278 277 278 278 278 277 278 278 279 279 280 280 281 280 280 279 281 283 283 284 284 284 283 281 281 280 277 276 275 275 275 274 274 274 274 273 271 271 270 270 270 270 270
275 272 271 271 270 275 275 276 278 276 276 277 279 278 278 277 276 275 275 276 278 280 279 278 279 279 278 277 277 276 276 276 276 276 276 276 276 276 276 276 277 277 277 277 276 276 276 276 276 276 276 277 278 278 279 279 279 278 279 281 282 283 283 283 282 282 281 281 280 278 276 275 274 274 274 274 274 274 274 272 271 271 270 270 270 270
271 274 272 271 272 270 266 275 274 274 276 276 276 276 276 276 276 277 276 278 279 280 279 278 279 278 278 276 276 276 276 275 275 275 275 274 274 274 274 274 275 275 275 275 276 276 275 275 274 274 275 275 276 277 277 277 278 278 279 280 280 280 280 280 280 280 280 280 281 279 276 275 275 274 273 273 273 274 273 273 272 272 271 270 270 270
270 275 272 273 272 270 270 274 275 275 275 276 276 276 276 277 278 277 277 279 280 280 279 279 276 275 274 274 274 273 273 274 273 273 273 273 273 273 273 273 272 273 273 273 273 274 273 273 273 273 273 273 274 275 275 276 276 277 278 278 278 278 278 277 277 277 278 279 280 279 277 275 273 273 273 273 273 273 273 272 272 272 271 270 271 270
273 274 262 267 270 273 275 275 275 276 276 276 277 277 278 277 277 276 277 278 278 277 277 275 274 274 274 273 273 271 270 272 272 272 271 272 272 271 272 272 272 272 272 272 272 272 271 271 271 272 272 273 273 273 274 274 275 275 276 276 276 276 275 275 275 276 277 278 279 279 277 275 274 274 274 273 272 273 273 273 272 272 272 273 273 273
270 271 275 272 269 269 270 273 275 270 270 275 276 275 274 274 275 275 276 275 275 275 274 272 273 272 271 271 271 270 269 270 271 271 269 270 270 271 271 271 271 270 271 271 271 270 270 270 270 270 270 271 272 272 272 272 273 273 274 274 274 274 273 273 274 274 275 276 277 278 277 275 274 273 273 273 272 272 272 273 276 274 272 272 275 276
273 274 274 271 270 269 275 276 277 277 276 276 276 277 277 275 275 275 275 275 274 272 271 270 270 270 270 270 270 270 268 269 269 270 269 269 269 270 270 270 269 270 270 270 269 269 269 269 270 269 269 270 270 270 271 270 271 271 271 272 272 272 272 272 272 273 273 274 275 276 276 275 274 273 272 272 272 272 271 270 272 277 277 276 275 276
Wind_Speed
2 7 8 9 15 16 12 16 19 19 12 4 1 4 11 11 11 8 13 11 3 4 11 16 17 19 17 14 15 16 13 15 17 17 16 14 13 14 16 17 18 17 20 21 15 10 11 12 11 10 10 12 11 11 12 13 14 15 17 15 17 16 15 14 14 13 13 13 10 8 12 13 11 11 10 9 9 10 10 10 10 10 9 9 9 9
2 7 8 16 20 16 15 14 12 8 3 6 7 6 12 5 15 16 13 10 1 4 3 5 12 18 16 14 14 14 10 17 20 20 19 17 14 16 18 19 19 20 15 14 15 17 8 8 7 7 9 9 12 13 13 17 19 19 17 18 17 13 14 16 16 15 15 15 17 17 16 14 12 11 12 12 11 11 8 8 9 9 9 10 10 9
5 11 16 21 16 2 3 2 2 7 8 6 9 9 8 10 15 11 11 17 6 1 14 10 17 19 16 14 13 14 18 18 17 18 21 14 14 16 16 18 20 17 17 16 17 18 11 6 7 8 9 11 16 16 18 19 16 14 14 15 14 14 16 16 15 14 15 13 11 12 10 13 9 8 8 7 7 6 8 9 10 9 9 10 9 9
5 6 20 16 1 3 5 4 1 2 4 6 8 5 12 10 4 11 4 5 2 6 6 4 16 17 10 13 16 17 19 18 14 16 19 15 16 20 21 20 18 18 18 19 20 18 10 7 8 9 10 13 11 10 10 10 15 14 15 15 15 15 15 14 15 15 13 11 8 5 4 5 6 6 6 5 5 6 6 10 10 9 10 11 10 10
16 5 3 4 3 7 12 8 2 5 14 7 10 7 12 13 15 12 5 5 5 5 4 12 16 18 11 15 12 15 17 16 14 15 14 19 17 19 19 17 17 20 21 21 19 16 10 6 9 12 12 8 11 13 14 15 15 13 18 17 18 16 16 15 15 15 11 9 7 6 6 6 6 5 6 5 5 9 11 8 9 12 10 10 10 10
11 7 3 5 9 6 6 6 7 9 16 7 6 13 21 17 12 9 10 8 3 6 3 3 9 13 6 14 14 11 4 7 9 11 15 21 21 15 16 18 18 15 17 20 22 18 10 8 7 8 8 10 11 13 15 15 16 13 13 13 13 11 12 13 14 15 13 13 14 12 11 10 9 8 9 13 16 14 13 15 7 6 10 10 10 9
7 3 6 8 7 7 6 8 8 9 16 9 7 13 18 12 10 9 14 4 7 3 4 1 4 20 4 5 8 6 7 12 8 8 16 17 16 12 16 14 13 15 17 14 13 14 13 12 8 9 10 13 13 16 10 8 10 12 11 13 14 14 13 13 14 16 13 13 13 16 17 16 16 16 13 13 11 11 10 7 10 10 8 10 11 9
3 3 5 3 5 6 6 5 13 13 8 10 3 6 6 7 8 10 7 6 8 1 4 1 3 6 24 4 8 12 12 11 13 16 16 16 16 16 11 12 14 16 15 11 10 13 13 11 12 15 14 12 15 9 7 9 9 12 13 13 14 12 12 12 13 15 15 16 15 15 14 13 14 15 15 13 10 7 7 9 9 9 9 10 10 10
7 2 5 4 3 5 9 17 3 12 8 6 1 5 5 8 7 1 4 5 3 4 10 6 3 5 12 6 7 9 7 11 15 17 16 15 17 10 8 12 15 18 18 9 12 15 17 14 11 9 8 11 9 8 11 11 11 11 11 12 11 12 12 12 15 16 15 14 15 15 14 14 13 12 8 6 7 8 9 10 8 10 10 10 10 10
2 2 7 9 8 10 8 3 8 12 7 4 5 6 4 4 4 2 3 2 2 2 14 7 6 4 21 1 4 1 1 10 12 16 15 14 13 9 10 10 12 13 14 12 15 15 13 8 6 7 8 6 10 8 7 7 8 9 10 12 13 13 12 12 14 14 15 15 13 14 15 16 13 10 7 7 9 9 9 11 11 10 10 11 10 11
3 2 5 5 8 5 3 1 3 9 7 4 2 1 2 4 2 3 5 2 3 7 11 15 12 7 12 6 7 8 9 11 12 4 6 11 11 10 10 12 13 12 14 12 9 6 8 5 5 3 7 6 5 6 8 9 10 10 11 12 14 15 12 13 15 16 18 15 15 15 17 18 16 13 11 9 10 9 9 12 12 11 11 9 11 10
2 1 1 4 4 3 3 2 2 0 1 2 1 1 3 6 5 1 3 3 3 12 4 13 15 12 11 4 4 6 6 5 6 7 8 10 11 10 8 10 11 10 9 11 14 8 5 5 2 0 4 4 5 6 9 9 10 11 12 13 15 13 14 13 14 16 17 16 17 16 17 17 16 15 13 15 15 14 15 13 12 9 8 10 9 10
4 10 4 2 4 11 4 2 2 3 2 4 2 1 2 5 7 4 2 1 5 11 2 1 3 3 20 12 3 7 10 9 8 7 7 9 11 11 10 11 11 8 9 12 10 5 5 4 6 5 5 3 6 9 8 9 10 10 11 14 16 16 14 15 15 17 17 16 16 17 16 15 13 14 15 15 14 13 13 12 11 12 13 10 10 12
8 1 2 5 1 4 8 8 1 1 6 7 7 5 4 2 4 6 4 3 5 7 4 5 2 10 12 6 10 14 16 16 10 7 9 9 12 11 9 10 12 13 13 11 7 5 4 5 5 4 5 6 5 5 8 8 10 10 11 14 17 17 15 14 15 17 17 19 18 15 14 14 12 14 14 12 13 13 11 11 13 14 14 14 16 14
6 9 5 6 4 5 10 13 14 7 8 11 3 11 10 8 5 4 4 10 10 9 2 3 4 9 1 4 3 13 10 5 6 6 5 6 6 8 11 12 12 14 16 13 10 5 4 5 4 5 7 7 6 6 7 8 9 10 11 14 15 13 15 16 17 15 18 17 16 14 14 12 12 13 13 13 11 11 12 11 12 12 11 13 13 13
9 10 5 2 1 7 10 3 4 5 2 3 3 3 1 8 5 10 6 6 10 5 4 2 8 3 6 2 6 6 8 9 8 7 4 6 7 10 10 11 13 13 14 14 13 9 5 6 5 5 5 5 6 7 8 9 10 11 13 13 15 16 15 15 14 16 17 16 14 15 16 17 16 12 11 10 10 12 13 12 12 12 12 11 10 9
1 5 1 2 3 2 4 1 1 3 5 2 6 6 9 2 5 6 5 4 1 1 15 5 9 10 6 11 10 9 9 13 9 9 8 10 13 7 7 10 11 12 13 14 12 9 7 5 5 5 5 4 5 8 12 13 14 16 13 13 15 14 13 16 18 17 14 13 12 15 15 13 14 16 17 17 16 13 10 10 11 11 11 9 9 10
6 5 1 5 4 0 0 1 1 2 3 7 1 8 1 2 3 2 6 1 7 12 9 4 17 14 7 14 3 3 4 6 5 7 9 8 6 7 11 11 11 11 11 9 8 7 7 5 7 7 6 6 6 6 6 9 9 10 11 13 15 14 16 17 16 16 15 16 16 15 16 16 17 17 16 13 13 12 11 10 10 9 9 13 11 9
1 7 5 1 2 2 2 0 5 1 0 5 6 1 2 5 4 2 2 5 7 11 8 8 11 16 12 18 14 10 6 6 8 7 4 6 5 7 10 12 10 9 9 9 9 8 5 5 6 5 4 3 4 5 5 3 5 6 8 10 13 17 20 18 15 14 13 14 13 14 17 19 17 15 14 13 11 10 13 14 13 13 13 8 9 11
3 4 4 2 2 2 2 2 5 2 1 1 1 2 1 1 7 7 7 3 3 13 8 12 12 13 6 13 16 19 15 12 9 6 7 7 7 8 10 11 11 12 10 10 10 11 7 3 4 5 6 6 7 6 6 6 6 10 10 8 10 10 9 9 13 14 16 16 15 14 12 13 15 16 15 15 14 13 14 14 13 13 12 14 11 11
3 1 6 1 1 1 4 5 9 7 5 2 1 3 1 3 2 0 2 4 9 12 12 11 13 8 10 12 18 24 17 7 9 10 8 7 7 7 6 7 8 9 9 11 11 10 7 7 3 3 4 5 5 5 5 7 11 10 7 10 11 13 13 13 14 13 15 13 14 14 14 16 15 17 14 12 13 14 14 13 14 14 13 9 12 13
5 5 13 4 5 10 13 4 6 6 7 8 9 11 12 11 9 11 16 4 6 9 13 12 18 7 7 8 18 22 21 6 8 8 8 7 6 7 9 10 7 9 12 14 14 6 7 9 10 4 3 3 4 5 5 4 4 7 12 12 10 9 10 13 12 14 15 13 13 14 15 15 13 12 11 13 13 14 13 13 14 14 12 15 14 14
7 3 6 10 13 16 15 16 11 6 7 9 8 12 11 13 10 11 17 13 9 12 9 15 14 11 5 11 18 21 19 9 6 6 7 7 7 7 9 7 8 9 11 13 13 13 9 7 6 8 5 4 7 7 5 4 6 7 7 6 8 11 14 12 13 11 10 10 11 15 15 12 10 11 13 14 13 15 15 14 13 12 14 15 13 13
4 2 3 13 8 12 10 12 11 3 4 5 5 6 5 13 15 16 15 12 12 8 10 11 15 7 8 13 17 18 18 18 10 6 8 7 6 7 7 10 12 13 13 9 6 6 7 8 8 7 8 6 4 4 3 4 6 9 10 11 9 12 16 13 12 11 10 11 13 13 10 11 12 11 13 14 15 17 16 14 13 12 14 14 12 14
6 2 10 14 9 10 7 4 6 4 3 7 12 13 15 14 13 12 8 4 12 14 15 15 19 7 3 5 10 14 17 19 21 6 6 7 8 7 9 10 10 8 8 9 9 8 9 12 13 11 11 12 9 5 4 6 9 10 11 8 11 14 15 12 10 9 12 12 13 11 11 12 12 13 14 16 15 17 16 14 13 12 14 13 13 14
9 6 6 11 12 13 11 13 9 10 13 9 5 12 11 11 15 10 13 10 17 10 16 17 15 9 7 4 11 15 17 19 19 16 3 6 7 8 7 9 9 8 9 9 12 14 14 12 11 11 11 12 10 7 6 6 8 8 8 10 10 12 11 10 7 9 9 9 11 12 13 13 12 14 16 18 17 17 16 15 13 13 12 14 15 13
3 3 13 14 14 16 15 13 3 3 1 5 6 14 16 16 14 13 11 12 15 14 16 16 15 16 13 10 14 19 20 21 21 21 17 9 10 8 8 8 7 9 11 12 10 12 13 15 16 16 15 12 11 9 9 8 9 8 9 12 10 10 9 8 7 10 11 13 14 14 14 14 15 16 17 17 16 13 11 13 13 13 14 13 14 14
1 6 11 17 20 19 19 20 17 13 17 10 8 6 8 11 11 14 14 18 13 14 19 9 17 18 16 13 17 20 21 24 23 21 19 15 11 12 10 13 15 15 15 14 15 16 15 14 14 15 15 16 15 13 11 10 9 10 10 11 9 6 7 7 8 11 12 12 12 13 14 15 16 17 17 14 10 10 11 11 11 13 12 11 13 14
2 6 7 12 19 17 20 21 20 19 17 17 18 18 20 20 17 16 18 18 14 15 20 14 15 17 15 14 17 20 20 21 20 20 18 16 16 17 15 15 14 13 14 15 13 13 14 14 13 14 15 14 15 16 15 13 12 11 10 9 9 6 8 8 7 10 10 9 11 13 13 12 12 11 9 9 10 10 11 12 12 11 11 12 12 11
3 6 8 11 15 14 18 19 20 21 20 20 20 22 22 20 21 22 23 19 19 21 20 21 23 27 21 20 18 17 13 15 16 16 16 18 13 12 12 12 12 11 11 12 12 12 12 13 13 14 14 15 15 15 15 13 13 12 12 12 11 11 13 10 12 13 11 11 13 12 10 9 7 7 8 9 12 13 12 11 12 13 13 14 14 12
3 5 12 11 12 12 11 14 15 18 19 21 20 20 20 19 21 20 18 18 21 24 23 27 27 24 17 15 14 14 15 14 14 15 13 10 12 11 11 11 10 10 10 10 11 13 12 13 13 14 16 16 16 16 14 14 12 10 7 5 7 10 12 10 12 11 12 13 12 9 7 7 9 9 11 12 11 9 12 13 12 13 12 12 12 13
2 6 5 8 11 10 7 10 11 12 13 15 16 17 18 19 20 15 16 17 19 21 23 20 17 13 9 13 8 11 14 15 13 12 12 10 9 9 10 11 11 11 11 11 11 11 13 14 15 16 16 16 15 15 15 17 17 16 17 16 16 14 6 6 9 9 8 8 6 6 8 9 9 10 12 9 10 10 10 8 9 11 11 11 12 12
3 5 6 7 14 11 10 7 9 12 14 16 16 17 20 20 17 18 19 19 19 17 17 15 7 7 4 8 12 13 12 10 11 8 10 11 10 9 10 10 11 10 11 11 11 12 12 12 12 13 15 14 15 15 14 14 15 17 17 18 18 16 16 14 9 8 7 6 5 7 7 6 8 9 9 10 10 9 8 10 10 11 11 14 12 9
7 8 10 6 11 10 16 20 15 14 17 11 4 2 5 11 9 10 10 8 13 10 4 6 3 4 9 12 12 10 13 10 9 3 3 5 9 12 12 10 10 10 11 11 9 10 10 11 11 11 12 12 13 12 11 10 12 13 13 14 15 16 16 15 13 9 10 8 6 6 5 6 7 8 8 5 6 6 8 10 12 11 9 8 8 11
13 12 12 6 11 11 13 14 15 19 16 3 6 7 6 8 11 5 5 9 8 9 8 7 9 10 9 5 7 10 9 12 8 6 3 7 7 7 7 9 10 10 11 11 12 12 11 11 11 12 14 15 14 14 14 15 15 14 14 13 13 13 13 13 11 11 10 9 8 5 4 4 5 6 4 4 5 5 7 8 6 7 8 9 11 12
12 13 10 9 9 10 9 10 16 14 2 1 2 11 6 3 6 9 3 10 7 6 7 6 6 4 7 8 7 6 9 12 9 7 5 11 9 9 9 10 9 8 9 8 7 9 10 12 12 11 12 11 12 13 12 12 13 15 15 12 11 12 11 10 10 9 9 9 8 6 4 3 4 4 3 4 4 6 7 6 8 9 8 8 8 7
13 9 7 13 7 14 11 14 20 12 18 13 10 7 7 4 7 2 5 3 6 3 5 3 4 5 5 5 8 8 9 9 5 3 3 8 9 6 7 8 9 9 8 8 6 8 8 8 9 10 9 10 10 12 12 12 12 12 13 13 12 12 11 10 11 10 9 8 7 6 4 3 4 4 4 5 6 7 7 7 8 7 5 7 7 8
9 13 8 12 8 10 13 12 12 10 15 3 4 9 4 5 6 6 5 4 7 3 1 2 3 5 6 6 6 8 8 9 8 3 8 9 8 6 5 5 6 7 8 8 8 8 10 9 9 9 9 11 11 10 11 10 11 11 12 12 12 12 12 10 11 10 9 9 8 6 4 3 3 4 4 5 8 9 8 6 5 6 6 9 8 9
1 6 10 13 10 11 13 12 9 8 2 7 5 5 8 8 7 4 3 6 4 2 5 4 3 3 4 4 7 6 7 9 9 7 7 10 10 6 8 7 6 8 8 9 9 11 11 11 10 11 11 10 12 13 13 13 12 12 13 13 13 12 12 12 12 11 10 9 7 5 4 3 3 4 4 5 6 6 7 7 8 5 5 6 6 7
3 2 1 6 10 9 10 12 12 4 5 1 1 6 6 6 5 2 6 2 2 5 6 5 3 4 6 6 4 2 3 9 11 10 9 9 8 7 7 9 9 9 9 9 8 8 9 9 11 12 12 13 13 13 14 12 12 12 12 13 11 12 13 13 12 10 9 8 7 5 4 3 4 4 5 5 4 3 4 3 4 5 6 5 5 6
4 6 4 10 8 10 12 10 7 6 1 1 4 5 9 3 1 7 11 3 5 4 6 5 5 7 6 6 6 4 6 7 11 12 9 7 7 8 6 6 9 8 9 9 9 9 8 8 8 10 11 11 12 12 11 12 12 13 12 12 12 14 14 13 12 10 9 8 7 5 4 3 3 4 4 4 5 4 3 4 5 5 6 6 5 5
3 3 4 2 5 7 8 11 10 8 3 2 8 3 6 3 5 9 2 4 4 7 4 7 7 8 6 7 7 7 9 9 9 10 10 9 8 8 8 9 9 9 7 6 8 8 8 8 8 8 8 8 10 10 10 11 13 12 12 12 13 14 13 13 13 11 9 8 7 7 5 4 4 3 3 4 6 6 5 3 5 5 6 5 6 7
4 5 4 6 2 2 0 8 9 13 1 4 3 9 1 3 6 6 6 3 5 7 7 8 9 9 8 8 9 10 9 8 8 10 10 9 8 9 9 9 9 9 8 8 8 7 8 9 9 9 9 9 8 8 8 9 12 12 12 13 14 13 13 13 12 12 10 9 8 6 5 4 4 4 3 5 6 7 7 6 6 6 6 7 7 7
2 8 5 5 3 9 7 8 7 3 3 4 5 6 6 9 6 5 3 6 5 7 7 8 8 9 9 9 9 8 7 7 8 8 8 8 7 8 9 8 7 6 6 6 7 8 7 9 9 10 10 10 8 8 8 9 10 11 12 14 13 12 13 12 12 12 11 11 9 7 6 5 4 4 4 5 6 6 7 7 7 7 7 7 8 8
6 11 7 12 5 8 7 9 6 6 7 9 12 13 10 10 4 4 4 7 10 7 8 6 8 8 8 9 8 6 7 7 8 7 7 8 8 8 9 9 9 9 9 9 8 7 6 9 12 12 11 10 9 9 9 8 11 14 14 13 11 12 13 13 14 13 13 13 11 8 7 4 4 4 5 5 7 8 7 8 8 8 7 8 7 8
2 2 0 3 5 7 7 9 12 8 7 14 12 9 6 6 7 5 5 8 8 10 6 8 8 9 7 6 6 6 7 7 8 8 8 8 9 9 8 8 9 9 10 10 9 8 7 10 11 11 13 13 10 10 9 8 9 14 15 12 11 12 12 14 15 15 15 14 12 10 6 6 6 5 6 7 6 7 8 10 10 9 8 8 9 9
6 7 4 7 7 8 12 8 7 8 10 9 12 9 6 7 9 8 8 9 10 10 8 7 9 8 6 4 7 8 7 6 7 8 8 8 9 10 10 10 10 10 11 11 11 8 8 8 10 12 13 15 13 9 10 11 10 11 12 13 12 12 13 13 14 15 15 15 13 10 6 7 6 6 6 7 6 7 7 7 8 9 9 10 10 10
9 6 8 12 15 11 14 16 14 9 11 12 10 10 13 14 13 10 10 10 9 8 7 7 4 5 2 4 5 4 6 7 7 8 8 8 9 10 11 10 10 10 10 10 10 8 8 8 9 11 13 14 15 10 10 11 12 12 13 13 12 11 13 14 15 14 15 16 13 11 8 7 9 9 7 8 8 8 8 8 9 10 12 13 13 13
5 4 4 5 8 12 14 10 11 14 14 14 16 14 12 12 13 12 10 9 9 8 7 4 3 3 1 5 1 2 5 10 8 7 7 9 10 10 11 11 11 11 11 12 11 9 10 8 10 12 13 15 14 12 11 12 12 12 12 12 12 12 13 15 16 16 16 15 12 12 9 7 8 8 9 8 8 9 9 10 11 11 10 9 8 10
2 12 13 8 11 13 13 13 11 10 11 12 10 8 7 6 7 10 9 7 7 8 4 4 6 2 2 3 3 3 6 8 9 7 7 10 11 12 12 12 11 11 12 12 10 11 11 11 11 12 13 14 13 12 12 12 12 12 12 11 11 11 13 15 15 15 15 13 12 12 10 8 8 8 8 9 9 9 9 10 13 10 10 9 12 16
11 14 10 10 11 12 13 16 14 14 14 12 12 12 12 6 5 8 10 9 4 2 3 3 6 8 7 5 2 4 6 8 11 9 9 11 12 12 12 13 13 13 14 13 13 14 14 13 13 13 15 16 13 13 12 12 13 15 14 11 10 11 13 14 13 13 14 13 12 13 11 10 9 8 8 9 9 8 9 8 9 18 20 14 11 14
Wind_Direction
141 161 168 190 225 222 216 199 215 227 233 258 200 224 248 253 268 258 258 258 173 320 248 259 262 264 265 258 263 266 274 276 271 269 264 259 259 257 259 258 257 256 253 260 262 248 228 225 216 207 199 206 202 201 193 194 197 195 193 184 193 189 180 175 176 179 176 179 179 189 196 200 191 194 191 191 193 193 196 188 186 185 187 183 181 182
93 181 210 213 226 221 213 216 230 261 296 237 256 257 259 224 268 248 264 264 170 191 271 198 264 268 266 264 261 267 262 259 265 268 266 260 255 258 260 262 259 256 264 268 273 262 233 227 214 201 200 191 193 207 194 198 199 197 192 191 193 179 183 186 184 182 183 186 186 184 192 192 191 186 186 196 196 197 190 186 188 189 187 184 185 179
197 200 219 226 233 275 303 290 223 222 245 254 237 254 285 257 258 279 266 269 257 194 276 268 260 261 262 262 260 253 255 251 248 254 262 264 265 261 259 258 263 265 263 265 260 262 252 212 209 200 203 203 204 199 198 203 196 194 192 197 187 186 184 189 184 180 189 189 191 189 188 186 185 194 195 192 185 173 183 192 192 189 188 183 185 182
250 248 235 238 322 280 281 260 171 280 239 227 248 261 249 259 283 285 214 279 357 190 287 269 280 274 266 257 253 247 249 252 248 250 262 256 252 257 256 254 262 269 267 262 260 263 259 202 208 203 207 210 206 206 208 201 198 195 198 193 188 188 188 185 187 189 188 183 177 167 126 154 142 167 161 156 147 175 179 201 194 193 187 186 187 182
224 229 243 225 183 203 234 241 238 265 263 204 224 237 261 254 241 238 273 335 296 274 249 295 287 276 224 244 245 253 242 255 259 258 258 266 250 248 256 266 258 258 264 269 271 266 258 224 217 208 212 198 203 207 204 199 197 197 197 192 188 185 186 186 184 181 167 147 129 117 94 101 91 80 136 152 187 194 200 190 192 201 184 185 187 183
268 256 122 140 209 208 217 254 231 227 264 237 217 211 238 249 274 270 283 328 355 317 294 266 328 292 189 202 218 235 283 254 251 249 254 254 256 256 260 252 260 260 255 258 264 266 266 237 229 222 217 207 213 213 212 201 201 193 193 189 186 183 184 184 181 174 166 171 164 157 156 164 176 179 174 191 201 196 195 203 180 171 189 187 188 185
231 229 177 203 190 204 192 220 233 186 245 262 261 211 239 252 254 268 277 347 285 248 318 8 193 291 140 199 224 245 239 251 264 239 245 253 260 250 255 261 259 257 261 258 261 269 263 246 229 224 211 211 212 221 206 198 198 196 190 185 183 183 183 182 178 173 171 172 177 180 182 181 183 191 204 205 201 191 196 170 179 187 178 188 186 187
194 258 200 189 158 170 179 235 240 188 236 265 227 187 216 241 239 245 240 213 257 289 268 197 160 245 294 241 209 212 224 233 244 252 254 253 258 253 251 265 267 266 261 262 265 263 254 244 219 226 214 208 217 210 178 195 190 189 185 179 183 183 182 180 174 178 179 178 180 183 188 190 195 198 202 196 192 177 161 177 180 173 184 184 189 185
163 214 171 165 168 148 197 220 98 155 182 222 284 152 218 213 231 216 188 217 234 21 290 183 97 282 259 286 208 181 207 244 244 245 249 254 257 269 259 253 259 266 269 256 258 260 257 246 230 230 220 217 212 190 192 189 187 184 180 180 179 183 180 179 178 180 184 184 182 184 185 194 205 202 196 159 162 166 167 177 173 180 183 185 190 190
301 182 202 174 156 214 226 211 166 164 199 268 119 88 75 74 68 141 143 161 315 24 270 169 184 207 277 273 209 22 202 247 243 240 242 248 255 261 268 264 260 266 272 268 249 254 275 278 255 221 222 205 205 193 182 177 169 173 170 177 178 185 181 178 179 181 185 186 182 189 195 197 197 191 168 160 171 173 171 184 184 185 182 187 187 192
221 344 165 126 201 218 169 203 165 189 191 108 81 84 356 31 26 20 70 82 21 262 267 164 195 168 273 286 189 143 202 206 230 291 280 273 266 261 255 257 263 262 273 275 279 273 265 290 273 224 214 209 182 178 172 171 172 170 172 175 181 185 177 178 182 181 186 188 189 195 195 197 195 187 174 169 179 175 176 191 189 187 190 184 193 186
190 115 167 247 99 87 104 98 32 11 163 129 237 133 18 306 16 33 339 42 191 267 252 180 183 189 227 280 280 247 295 284 190 219 252 268 272 263 263 264 258 262 266 285 292 299 320 323 332 290 242 203 186 170 178 176 169 171 174 175 181 182 185 182 183 186 190 191 196 199 197 199 198 184 186 191 190 186 189 190 186 183 176 193 190 190
255 211 214 147 224 155 169 126 307 23 69 134 99 59 247 274 24 324 29 320 193 232 263 276 150 7 244 246 248 294 268 261 240 220 227 252 276 281 270 266 280 294 287 273 277 332 319 271 250 222 219 206 197 196 181 176 172 173 175 179 181 191 185 185 184 190 192 194 201 200 200 202 195 193 195 197 196 190 191 188 183 178 193 181 187 199
279 290 161 218 90 220 134 179 264 302 206 130 164 164 121 256 241 257 265 240 294 296 245 172 198 246 276 311 215 244 251 241 246 225 235 238 248 266 289 293 283 278 272 276 301 304 254 252 255 225 211 210 209 200 185 179 178 179 181 184 188 191 184 183 187 192 193 201 202 199 200 199 193 201 199 201 202 195 195 188 191 190 190 189 198 192
313 300 261 145 227 192 173 199 197 176 160 197 111 156 188 173 161 236 204 248 249 249 327 264 127 232 68 243 241 223 250 315 298 272 258 275 280 270 265 270 277 282 283 289 287 284 254 264 249 231 222 210 195 192 189 187 189 181 188 189 193 186 190 189 193 191 199 202 200 200 201 198 198 202 201 205 203 195 194 196 196 197 192 196 199 196
214 240 256 197 318 143 181 224 98 102 78 213 155 83 73 234 145 240 210 235 267 298 336 214 215 199 227 288 293 251 275 273 269 277 309 280 267 258 273 278 275 276 279 285 290 296 286 264 252 242 230 222 198 188 189 194 191 193 196 193 193 192 188 192 194 202 203 202 199 198 197 201 199 200 202 205 202 203 197 195 195 198 197 202 191 190
209 271 273 43 37 186 176 120 196 139 220 236 105 190 216 150 155 264 281 263 61 22 256 244 286 275 305 281 259 274 269 266 276 284 275 262 258 276 273 271 274 272 275 275 284 299 295 295 278 257 245 225 211 200 202 199 195 196 189 189 195 195 191 194 199 201 199 199 201 209 209 202 200 200 202 204 203 199 191 190 198 198 201 191 190 190
241 256 97 129 242 308 73 64 25 6 139 96 150 238 106 131 110 182 242 320 237 243 252 215 270 283 322 279 338 15 324 279 280 261 252 263 287 302 287 279 274 278 281 292 290 280 274 271 267 251 234 221 215 223 233 229 212 198 197 197 194 193 196 201 198 198 197 198 203 204 207 207 205 205 208 206 200 191 186 192 194 194 188 199 192 178
25 287 273 237 111 269 32 59 325 299 282 193 192 273 140 241 273 271 86 260 244 248 263 211 256 270 271 276 289 274 268 260 259 254 278 288 294 284 287 291 293 288 296 300 300 296 279 273 294 306 288 259 236 225 220 241 270 260 219 207 203 201 203 198 196 196 200 201 206 206 206 206 207 206 207 206 198 185 192 195 196 194 198 178 179 182
354 287 301 360 80 20 24 87 244 212 357 18 15 294 147 102 234 220 194 200 218 262 258 250 228 251 240 272 276 280 241 237 251 280 269 253 272 299 295 300 302 309 308 302 305 303 308 297 245 238 231 223 217 218 220 212 198 222 236 228 219 222 212 202 202 199 201 205 208 211 209 211 210 209 205 200 194 193 197 198 194 193 187 193 180 184
290 34 262 249 309 332 276 190 225 192 203 228 193 267 281 218 215 356 334 183 225 253 244 264 249 224 226 249 264 267 266 193 220 236 237 260 280 281 285 278 289 281 287 296 295 303 299 279 273 248 229 220 209 202 206 217 217 206 201 226 226 218 213 208 207 200 211 204 210 211 210 211 209 211 206 200 199 202 203 197 192 191 194 168 186 182
255 173 249 234 291 244 250 226 195 201 216 232 197 223 216 227 252 253 252 188 234 230 249 246 252 226 210 232 257 265 269 185 231 207 245 267 263 275 288 292 269 296 304 302 302 284 292 324 336 325 235 217 205 222 226 234 266 235 207 211 224 228 223 220 212 207 211 205 211 210 216 215 210 209 202 203 202 206 204 201 197 193 177 187 189 183
202 159 196 227 220 236 241 256 255 201 226 241 223 246 217 236 232 236 256 237 239 233 252 252 272 238 181 228 250 261 275 263 220 220 243 263 269 275 277 271 284 276 271 277 296 315 327 324 290 287 283 238 207 199 188 186 204 238 266 231 217 222 232 219 221 219 215 211 211 216 218 216 211 205 204 203 204 206 205 205 200 187 189 191 186 188
96 205 230 247 244 253 244 251 266 206 226 285 261 238 233 236 219 235 241 254 259 257 245 259 245 249 201 242 260 272 279 283 269 213 252 261 257 260 272 283 280 283 282 298 304 301 292 279 282 294 299 280 282 312 275 229 224 227 221 223 221 225 231 223 221 213 211 216 220 220 213 214 214 204 205 205 208 208 207 203 199 191 194 192 184 186
250 216 244 268 271 275 269 309 294 252 178 224 240 230 231 242 252 258 282 59 264 239 250 255 257 246 242 261 268 275 277 278 281 253 199 244 262 256 265 266 264 266 286 293 282 274 287 311 324 321 316 313 309 297 266 248 238 229 231 220 222 229 231 227 225 215 215 214 219 214 212 214 206 209 210 211 209 211 206 202 198 193 196 188 191 190
229 226 231 248 246 250 249 246 239 244 231 235 228 257 249 235 238 255 255 247 253 243 245 250 263 260 265 280 286 278 278 280 282 283 196 237 260 266 250 249 256 260 273 295 325 340 330 318 318 319 316 321 318 299 283 269 256 250 246 238 229 237 238 229 222 222 219 218 220 219 214 213 206 212 213 214 214 211 203 200 196 194 196 193 192 187
266 271 235 242 243 248 252 260 240 112 43 203 221 217 236 238 234 234 253 254 250 259 249 252 266 275 262 273 274 277 280 284 286 288 291 295 285 257 252 280 319 346 357 357 354 350 354 354 348 344 342 336 323 312 305 298 291 281 266 257 241 236 240 233 215 221 219 218 215 217 214 210 209 211 213 215 215 209 201 200 198 194 197 194 193 187
45 264 240 252 247 250 256 261 266 261 263 250 252 244 238 239 235 232 230 245 245 265 258 251 261 265 268 265 264 272 278 281 282 289 298 303 302 315 7 29 28 19 12 14 14 10 3 356 356 353 349 351 349 341 330 310 293 285 283 282 283 267 256 246 227 230 227 226 225 223 221 216 215 213 214 212 210 205 201 197 196 199 195 188 192 191
275 245 266 251 259 258 258 261 261 264 257 259 256 258 256 251 248 243 243 245 250 248 262 264 266 267 264 252 255 256 265 272 287 296 303 322 9 37 35 30 24 16 8 10 5 2 0 356 351 349 350 350 351 352 348 342 327 313 302 290 287 289 265 251 247 246 241 242 239 236 231 227 224 224 217 205 203 201 197 196 196 191 189 191 195 192
281 239 247 259 271 267 267 265 263 261 263 264 259 254 253 257 258 257 259 259 254 259 266 268 265 263 265 268 264 274 290 307 316 336 3 31 29 23 34 31 21 11 7 2 357 354 352 351 349 349 346 350 352 349 348 347 343 333 316 306 298 283 265 250 240 234 231 229 233 235 234 236 235 224 213 206 204 202 196 192 190 188 191 192 192 190
272 304 350 322 309 294 282 273 270 263 265 263 265 266 262 261 263 262 269 271 275 270 265 261 263 268 273 300 336 14 21 17 23 25 34 25 22 17 16 19 13 8 1 356 356 353 349 348 349 349 351 349 349 346 344 341 337 332 319 295 268 252 253 238 233 225 221 225 228 229 220 215 216 208 212 214 208 202 195 194 191 190 190 190 188 187
324 283 304 293 296 285 284 284 283 287 281 273 269 266 266 264 264 263 261 250 251 259 266 273 272 277 356 356 349 26 22 21 18 10 15 14 9 12 10 7 2 359 356 353 351 353 354 351 351 351 347 344 344 347 347 345 342 342 342 337 335 326 289 224 224 229 235 236 239 228 221 218 215 210 216 207 210 204 201 189 183 187 188 185 186 188
264 298 299 310 290 277 281 272 296 297 297 281 263 252 252 254 250 253 254 260 259 266 271 270 300 51 302 352 14 3 7 1 2 3 5 5 7 8 7 357 355 349 351 348 349 352 353 352 347 343 341 340 342 343 342 341 343 344 339 337 335 334 336 330 316 300 284 270 246 239 225 221 216 220 217 210 206 197 188 188 189 189 186 192 189 172
262 263 278 278 275 293 298 293 294 284 256 256 318 316 271 268 285 279 290 342 16 47 52 91 111 352 20 21 19 343 352 335 320 315 357 13 4 359 356 354 349 345 344 346 347 348 346 347 345 341 337 332 332 335 333 341 342 335 334 333 337 347 344 337 324 313 296 294 275 257 236 224 221 225 224 212 204 194 194 193 198 194 187 174 171 185
266 274 266 266 269 279 289 297 292 259 267 281 83 37 62 67 54 349 51 41 28 50 81 70 39 27 21 15 5 345 313 312 305 219 21 27 23 8 352 341 343 345 342 339 344 342 345 342 339 338 340 340 336 335 339 343 347 339 341 345 345 346 344 342 330 318 313 307 303 292 267 246 236 240 226 199 196 196 201 201 196 184 185 183 185 186
249 255 271 261 262 276 264 257 260 258 324 321 104 55 0 64 27 12 85 60 28 15 48 51 32 37 6 352 343 324 328 307 303 226 15 20 18 357 353 341 336 335 337 334 329 334 335 338 336 334 329 327 331 333 338 339 339 341 337 339 347 343 342 337 334 324 321 314 312 305 285 255 244 233 201 186 192 198 200 194 193 191 187 187 193 193
236 257 248 271 238 265 258 257 259 294 288 267 281 1 32 16 342 45 286 33 57 334 62 13 6 9 344 342 342 325 325 328 309 236 21 5 351 352 342 329 324 331 325 326 328 320 326 322 324 324 322 324 329 332 335 335 337 337 334 341 343 343 338 341 341 335 326 316 309 305 295 269 235 219 190 180 188 199 199 193 197 197 177 186 194 192
219 221 226 252 235 235 266 275 276 278 265 313 137 254 275 230 261 231 254 234 103 353 104 114 313 341 345 306 316 321 312 333 335 277 344 345 345 322 323 313 312 314 321 321 324 324 327 327 321 325 327 325 329 330 330 332 335 335 338 338 340 342 335 341 340 332 324 314 305 294 278 251 225 225 204 192 201 201 202 191 189 188 177 188 188 195
323 234 237 242 270 267 259 256 262 268 296 114 285 278 245 258 270 271 188 235 97 200 239 139 237 233 262 291 280 301 346 334 306 301 325 334 316 323 313 312 310 310 315 319 323 326 325 328 328 327 329 330 332 333 334 335 338 339 338 339 338 336 334 337 334 331 324 313 304 287 255 227 208 213 209 215 218 204 200 194 192 179 166 184 182 191
29 297 179 237 246 244 260 264 269 264 250 169 253 272 252 288 307 164 281 226 123 236 196 187 225 258 245 234 247 241 324 313 307 307 307 297 301 296 302 305 307 307 311 312 315 313 315 315 329 330 334 335 332 332 333 335 337 338 336 335 334 332 333 333 328 316 307 301 297 286 257 232 219 209 200 211 212 206 205 168 147 166 174 182 178 174
299 295 246 260 259 275 274 278 293 281 104 248 298 288 314 311 94 297 268 344 339 201 205 193 229 236 237 229 223 231 242 231 265 277 284 280 288 281 280 289 292 299 305 308 311 315 316 319 323 323 323 326 327 329 330 334 335 334 334 332 334 330 329 328 323 317 311 308 306 296 273 257 230 216 201 181 179 166 160 168 171 159 170 172 166 160
281 187 293 256 244 252 265 269 266 290 245 103 299 1 302 25 294 243 276 319 290 281 207 200 224 240 235 229 231 231 257 259 254 271 283 278 266 278 289 294 298 298 296 296 307 313 314 316 310 306 312 312 320 325 330 332 332 328 330 332 328 325 325 327 323 319 316 310 304 300 285 267 260 223 188 163 153 161 172 164 154 167 167 166 164 174
223 279 220 246 238 315 187 271 279 270 228 110 292 336 175 126 227 288 289 246 222 243 227 220 220 238 228 238 234 235 252 258 259 266 271 280 279 283 291 292 294 296 301 310 308 304 307 309 307 307 310 314 317 325 325 327 324 325 325 323 320 323 326 325 322 318 314 308 301 291 281 269 239 218 186 176 175 171 170 158 158 168 167 167 169 175
204 265 251 255 189 267 230 239 235 226 256 306 0 279 281 262 230 244 204 264 240 223 229 232 229 225 226 223 237 251 251 261 268 266 269 275 279 286 290 290 281 279 289 291 291 297 304 301 301 308 312 317 320 322 325 325 319 318 320 315 320 323 323 325 323 319 312 305 297 289 275 257 244 225 209 189 175 176 169 171 168 167 175 174 176 181
176 225 218 251 207 228 213 244 248 283 313 311 294 281 260 256 226 204 230 271 286 258 221 221 235 235 219 225 239 249 268 258 261 271 279 277 283 283 286 292 298 300 299 295 294 297 304 305 312 312 310 312 319 319 320 324 320 318 315 315 323 322 324 325 323 319 312 307 300 284 272 257 245 230 216 206 187 182 180 175 173 175 180 174 184 187
290 239 99 326 247 259 244 242 265 288 275 270 266 256 247 265 275 273 271 281 255 251 218 213 229 235 233 224 235 254 242 257 274 280 281 288 291 289 284 286 291 294 295 298 300 306 309 312 310 310 310 313 316 318 313 316 322 315 309 316 322 322 327 323 322 317 311 307 301 290 272 257 251 239 234 220 214 208 194 184 184 184 181 185 191 191
241 244 241 244 261 265 262 252 249 247 258 257 260 273 268 246 255 272 277 257 255 249 243 225 227 231 231 216 218 239 257 257 262 271 279 286 284 285 289 286 286 289 293 294 293 303 310 307 308 308 311 307 308 313 312 313 313 304 305 311 318 322 320 319 313 309 307 304 302 295 272 252 251 237 233 225 227 219 209 199 194 191 190 192 194 196
281 182 211 238 253 243 263 260 263 255 245 256 260 271 275 281 280 274 256 249 247 246 233 231 210 235 214 233 230 237 263 274 272 273 277 276 279 284 286 288 287 289 286 284 291 299 297 297 298 302 304 302 302 310 308 306 305 304 306 307 313 318 317 312 309 305 302 300 299 294 276 256 246 238 234 224 216 216 214 209 201 205 203 193 194 194
240 70 212 179 233 248 260 274 278 269 272 271 266 263 260 260 268 271 266 252 242 242 244 250 182 207 201 249 283 266 274 275 272 273 276 282 283 283 283 287 290 287 291 296 298 302 296 299 300 296 296 293 296 301 300 296 294 297 300 304 311 317 314 306 302 302 297 296 295 288 277 252 250 234 236 234 223 226 219 207 205 212 223 223 212 207
241 251 255 254 261 259 260 264 259 273 271 266 262 262 263 249 242 254 263 267 246 242 248 269 290 297 268 272 269 268 264 277 284 287 284 280 279 284 288 288 288 290 289 289 295 295 296 296 292 291 289 287 290 293 291 291 292 292 293 299 305 309 304 301 299 297 293 294 294 289 283 267 253 240 235 234 231 229 237 231 225 218 216 221 207 218
228 241 247 247 245 259 256 252 252 255 266 271 291 296 289 277 248 251 256 258 283 358 17 355 315 310 301 288 244 259 272 276 281 289 284 279 279 280 281 287 291 291 289 293 299 296 296 295 292 289 285 285 290 287 287 289 290 290 290 297 305 304 296 293 294 292 289 290 287 286 286 276 263 250 235 234 233 227 231 236 232 228 226 222 213 212